Flag for U.S.A. Weather past 2 weeks in Clearwater, Florida, U.S.A.

Now
78 °F

Clear.


Feels Like: 81 °F
Forecast: 78 / 88 °F
Wind: 5 mph from Southeast

Location: St. Petersburg / Clearwater International Airport

Current Time: Sep 2, 2015 at 2:41:27 AM

Latest Report: Sep 2, 2015 at 1:53 AM


Visibility: 10 mi

Pressure: 30.06 "Hg

Humidity: 93%

Dew point: 76 °F

Location of ClearwaterLocation

Historic Weather in Clearwater — Graph

°F

Clearwater temperature yesterday

Maximum temperature yesterday: 85 °F (at 10:53 AM)
Minimum temperature yesterday: 77 °F (at 3:53 AM)
Average temperature yesterday: 80 °F

Past Weeks' High & Low Weather Summary

 TemperatureHumidityPressure
High94 °F (Aug 22, 2:53 PM)97% (Aug 30, 11:53 PM)30.10 "Hg (Aug 30, 11:53 PM)
Low74 °F (Aug 27, 7:53 AM)49% (Aug 26, 1:53 PM)29.87 "Hg (Aug 24, 7:53 PM)
Average83 °F80%29.98 "Hg
* Reported Aug 18 12:53 AM — Sep 2 12:53 AM, Clearwater, Weather by CustomWeather, © 2015

Note: Actual official high and low records may vary slightly from our data, if they occured in-between our weather recording intervals... More about our weather records

Advertising

Clearwater weather history for previous 24 hours

 ConditionsComfort  
Time TempWeatherWind HumidityBarometerVisibility
12:53 AM
Wed, Sep 2
78 °FClear.No wind93%30.07 "Hg10 mi
11:53 PM
Tue, Sep 1
79 °FClear.No wind90%30.06 "Hg10 mi
10:53 PM79 °FClear.No wind90%30.06 "Hg10 mi
9:53 PM80 °FClear.5 mph85%30.06 "Hg10 mi
8:53 PM80 °FClear.3 mph85%30.04 "Hg10 mi
7:53 PM81 °FSunny.5 mph85%30.04 "Hg10 mi
6:53 PM83 °FSunny.5 mph79%30.03 "Hg10 mi
4:53 PM84 °FScattered clouds.12 mph74%30.04 "Hg10 mi
3:53 PM85 °FSunny.12 mph72%30.05 "Hg10 mi
2:53 PM82 °FPassing clouds.7 mph82%30.07 "Hg10 mi
1:53 PM82 °FBroken clouds.9 mph82%30.08 "Hg10 mi
1:00 PM79 °FPassing clouds.9 mph88%30.09 "Hg10 mi
12:03 PM79 °FThundershowers. Mostly cloudy.21 mph84%30.10 "Hg10 mi
10:53 AM85 °FBroken clouds.12 mph80%30.06 "Hg10 mi
9:53 AM84 °FSunny.14 mph83%30.06 "Hg10 mi
8:53 AM81 °FSunny.12 mph91%30.05 "Hg10 mi
7:53 AM79 °FPassing clouds.8 mph94%30.05 "Hg10 mi
6:53 AM78 °FClear.7 mph96%30.03 "Hg10 mi
5:53 AM78 °FClear.5 mph96%30.01 "Hg10 mi
4:53 AM78 °FClear.6 mph96%30.00 "Hg10 mi
3:53 AM77 °FClear.6 mph96%30.01 "Hg10 mi
2:53 AM78 °FClear.3 mph93%30.02 "Hg10 mi
Weather by CustomWeather, © 2015

See weather overviewHow to use our weather pages